User: anonymous
Location: Melbourne
(37.8170°S, 144.9670°E)
Time: 21:07:23
(UTC+10:00)
Language:

Aureole 2 Rocket - Orbit

View from above orbital plane
View from above orbital plane
View from above satellite
View from above satellite

Ground track
Ground track

The orbit data is extracted from the following two-line orbital elements,

1 07004U 73107B   14210.28535507  .00008329  00000-0  22422-3 0  6749
2 07004 073.9512 140.3061 0301087 275.0242 199.6159 15.03062035 76699
Epoch (UTC): 29 July 2014 06:50:54
Eccentricity: 0.0301087
inclination: 73.9512°
perigee height: 348 km
apogee height: 766 km
right ascension of ascending node: 140.3061°
argument of perigee: 275.0242°
revolutions per day: 15.03062035
mean anomaly at epoch: 199.6159°
orbit number at epoch: 7669

The dashed part of the orbit path shows where the satellite is in the earth's shadow,  

DLR